Tracking 33165 objects as of 7-Feb-2026
HD Live streaming from Space Station
objects crossing your sky now

STARLINK-32833

Track STARLINK-32833 now!
10-day predictions
STARLINK-32833 is classified as:


NORAD ID: 62873
Int'l Code: 2025-022V
Perigee: 481.5 km
Apogee: 483.2 km
Inclination: 53.2 °
Period: 94.1 minutes
Semi major axis: 6853 km
RCS: Unknown
Launch date: February 1, 2025
Source: United States (US)
Launch site: AIR FORCE WESTERN TEST RANGE (AFWTR)
Your satellite tracking list
Your tracking list is empty




NASA's NSSDC Master Catalog

Two Line Element Set (TLE):
1 62873U 25022V   26038.07252129  .00028280  00000-0  96312-3 0  9998
2 62873  53.1560 271.7528 0001281  79.2456 280.8689 15.30206600 57214
Source of the keplerian elements: AFSPC